Harrisburg, IL

7:30 PM CST on December 05, 2019 (GMT -0600)
Harrisburg-Raleigh

Weather History for KHSB - October, 2019

Change the Weather History Date:

Saturday, October 5, 2019

  Actual Average (KMWA) Record (KMWA)
Temperature  
Mean Temperature 68 °F -  
Max Temperature 85 °F 73 °F 88 °F (1969)
Min Temperature 50 °F 45 °F 29 °F (1987)
Cooling Degree Days 2    
Growing Degree Days 18 (Base 50)    
Moisture  
Dew Point 42 °F    
Average Humidity 47    
Maximum Humidity 83    
Minimum Humidity 12    
Precipitation  
Precipitation 0.00 in - - ()
Sea Level Pressure  
Sea Level Pressure 30.05 in    
Wind  
Wind Speed 2 mph ()    
Max Wind Speed 14 mph    
Max Gust Speed 20 mph    
Visibility 9.8 miles    
Events      
Averages and records for this station are not official NWS values.
T = Trace of Precipitation, MM = Missing Value Source: Averaged Metar Reports

Daily Weather History Graph

Daily Weather History Graph

Search for Another Location

Airport or City:

Astronomy

Oct. 05, 2019 Rise Set
Actual Time 6:53 AM CDT 6:31 PM CDT
Civil Twilight 6:26 AM CDT 6:57 PM CDT
Nautical Twilight 5:56 AM CDT 7:28 PM CDT
Astronomical Twilight 5:25 AM CDT 7:58 PM CDT
Moon 2:12 PM CDT (10/5) No Moon Set
Length of Visible Light 12h 30m
Length of Day
11h 38m
Waxing Crescent, 50% of the Moon is Illuminated
Oct 5
Waxing Crescent
Oct 13
Full
Oct 21
Last Quarter
Oct 27
New
Nov 4
First Quarter

Hourly Weather History & Observations

Time (CDT) Temp. Dew Point Humidity Pressure Visibility Wind Dir Wind Speed Gust Speed Precip Events Conditions
12:15 AM 56.5 °F 44.1 °F 63% 30.18 in 7.0 mi Calm Calm - N/A   Clear
12:35 AM 55.6 °F 44.6 °F 67% 30.17 in 10.0 mi Calm Calm - N/A   Clear
12:55 AM 57.2 °F 44.8 °F 63% 30.17 in 10.0 mi NE 3.5 mph - N/A   Clear
1:20 AM 57.0 °F 45.0 °F 64% 30.16 in 10.0 mi Calm Calm - N/A   Clear
1:35 AM 55.0 °F 45.3 °F 70% 30.16 in 10.0 mi Calm Calm - N/A   Clear
1:55 AM 54.9 °F 45.3 °F 70% 30.16 in 10.0 mi Calm Calm - N/A   Clear
2:15 AM 53.2 °F 45.1 °F 74% 30.15 in 10.0 mi Calm Calm - N/A   Clear
2:35 AM 54.5 °F 45.5 °F 72% 30.14 in 10.0 mi ENE 3.5 mph - N/A   Clear
2:55 AM 53.6 °F 45.3 °F 74% 30.14 in 10.0 mi Calm Calm - N/A   Clear
3:15 AM 53.6 °F 45.9 °F 75% 30.14 in 10.0 mi Calm Calm - N/A   Clear
3:35 AM 51.8 °F 45.5 °F 79% 30.14 in 10.0 mi Calm Calm - N/A   Clear
3:55 AM 51.8 °F 45.7 °F 80% 30.14 in 10.0 mi Calm Calm - N/A   Clear
4:15 AM 52.0 °F 45.9 °F 80% 30.14 in 10.0 mi Calm Calm - N/A   Clear
4:35 AM 50.4 °F 45.5 °F 83% 30.14 in 10.0 mi North 4.6 mph - N/A   Clear
4:55 AM 52.2 °F 46.6 °F 81% 30.13 in 10.0 mi Calm Calm - N/A   Clear
5:15 AM 52.7 °F 45.9 °F 78% 30.12 in 10.0 mi NE 3.5 mph - N/A   Clear
5:35 AM 53.2 °F 45.9 °F 76% 30.12 in 10.0 mi NE 3.5 mph - N/A   Clear
5:55 AM 54.0 °F 45.9 °F 74% 30.12 in 10.0 mi NE 4.6 mph - N/A   Clear
6:15 AM 53.2 °F 46.2 °F 77% 30.12 in 10.0 mi ENE 3.5 mph - N/A   Clear
6:35 AM 52.5 °F 46.0 °F 79% 30.12 in 10.0 mi NE 4.6 mph - N/A   Clear
6:55 AM 52.7 °F 46.0 °F 78% 30.12 in 7.0 mi NE 3.5 mph - N/A   Clear
7:15 AM 52.5 °F 46.0 °F 79% 30.12 in 10.0 mi ENE 4.6 mph - N/A   Clear
7:35 AM 53.2 °F 46.4 °F 78% 30.12 in 10.0 mi NE 3.5 mph - N/A   Clear
7:55 AM 54.7 °F 46.8 °F 75% 30.13 in 10.0 mi NE 3.5 mph - N/A   Clear
8:15 AM 56.3 °F 46.6 °F 70% 30.12 in 10.0 mi East 5.8 mph - N/A   Clear
8:35 AM 57.4 °F 46.0 °F 66% 30.11 in 10.0 mi East 6.9 mph - N/A   Clear
8:55 AM 59.2 °F 46.4 °F 63% 30.12 in 10.0 mi ESE 3.5 mph - N/A   Clear
9:15 AM 61.0 °F 46.2 °F 58% 30.11 in 10.0 mi East 5.8 mph - N/A   Clear
9:35 AM 62.8 °F 45.5 °F 53% 30.10 in 10.0 mi ESE 5.8 mph - N/A   Clear
9:55 AM 64.4 °F 45.1 °F 50% 30.11 in 10.0 mi ESE 5.8 mph - N/A   Clear
10:15 AM 66.0 °F 45.0 °F 47% 30.10 in 10.0 mi SE 4.6 mph - N/A   Clear
10:35 AM 67.1 °F 44.8 °F 45% 30.10 in 10.0 mi ESE 3.5 mph - N/A   Clear
10:55 AM 68.7 °F 45.0 °F 42% 30.08 in 10.0 mi ESE 4.6 mph - N/A   Clear
11:15 AM 70.5 °F 44.2 °F 39% 30.07 in 10.0 mi SSE 4.6 mph - N/A   Clear
11:35 AM 72.9 °F 43.3 °F 35% 30.06 in 10.0 mi South 6.9 mph - N/A   Clear
11:55 AM 73.9 °F 42.8 °F 33% 30.06 in 10.0 mi ESE 3.5 mph - N/A   Clear
12:15 PM 75.0 °F 41.4 °F 30% 30.05 in 10.0 mi Calm Calm - N/A   Clear
12:35 PM 77.9 °F 39.4 °F 25% 30.04 in 5.0 mi ESE 4.6 mph - N/A   Haze
12:55 PM 77.9 °F 37.4 °F 23% 30.04 in 10.0 mi Calm Calm - N/A   Clear
1:15 PM 80.1 °F 33.8 °F 19% 30.02 in 7.0 mi South 3.5 mph - N/A   Clear
1:35 PM 80.1 °F 33.4 °F 19% 30.01 in 10.0 mi South 3.5 mph - N/A   Clear
1:55 PM 81.7 °F 33.8 °F 18% 30.01 in 10.0 mi SSE 5.8 mph - N/A   Clear
2:15 PM 82.0 °F 32.5 °F 17% 30.00 in 10.0 mi Calm Calm - N/A   Clear
2:35 PM 82.2 °F 32.0 °F 16% 29.99 in 10.0 mi Calm Calm - N/A   Clear
2:55 PM 83.3 °F 31.8 °F 16% 29.99 in 10.0 mi Calm Calm - N/A   Clear
3:15 PM 84.2 °F 31.8 °F 15% 29.98 in 10.0 mi WSW 3.5 mph - N/A   Clear
3:35 PM 84.6 °F 30.6 °F 14% 29.98 in 10.0 mi South 3.5 mph - N/A   Clear
3:55 PM 84.7 °F 30.2 °F 14% 29.97 in 10.0 mi West 3.5 mph - N/A   Clear
4:15 PM 85.3 °F 26.4 °F 12% 29.97 in 10.0 mi West 6.9 mph - N/A   Clear
4:35 PM 84.4 °F 26.8 °F 12% 29.97 in 10.0 mi Calm Calm - N/A   Clear
4:55 PM 85.1 °F 26.1 °F 12% 29.96 in 10.0 mi SSW 3.5 mph - N/A   Clear
5:15 PM 84.0 °F 25.5 °F 12% 29.96 in 10.0 mi WSW 4.6 mph - N/A   Scattered Clouds
5:35 PM 82.4 °F 32.0 °F 16% 29.96 in 10.0 mi West 5.8 mph - N/A   Mostly Cloudy
5:55 PM 81.1 °F 33.6 °F 18% 29.97 in 10.0 mi West 6.9 mph - N/A   Overcast
6:15 PM 79.2 °F 35.4 °F 21% 29.96 in 10.0 mi West 4.6 mph - N/A   Overcast
6:35 PM 77.9 °F 38.1 °F 24% 29.96 in 10.0 mi Calm Calm - N/A   Mostly Cloudy
6:55 PM 75.2 °F 42.4 °F 31% 29.95 in 10.0 mi SSW 3.5 mph - N/A   Mostly Cloudy
7:15 PM 73.8 °F 44.2 °F 35% 29.96 in 10.0 mi Calm Calm - N/A   Scattered Clouds
7:35 PM 70.9 °F 48.7 °F 45% 29.97 in 10.0 mi Calm Calm - N/A   Scattered Clouds
7:55 PM 72.3 °F 45.0 °F 37% 29.96 in 10.0 mi Calm Calm - N/A   Scattered Clouds
8:15 PM 70.5 °F 46.2 °F 42% 29.96 in 10.0 mi Calm Calm - N/A   Clear
8:35 PM 70.7 °F 47.7 °F 44% 29.96 in 7.0 mi Calm Calm - N/A   Scattered Clouds
8:55 PM 70.5 °F 48.9 °F 46% 29.96 in 10.0 mi South 3.5 mph - N/A   Scattered Clouds
9:15 PM 68.7 °F 52.0 °F 55% 29.96 in 10.0 mi Calm Calm - N/A   Scattered Clouds
9:35 PM 68.5 °F 52.3 °F 56% 29.96 in 10.0 mi Calm Calm - N/A   Scattered Clouds
9:55 PM 68.7 °F 50.4 °F 52% 29.96 in 10.0 mi SSW 3.5 mph - N/A   Clear
10:15 PM 69.3 °F 46.8 °F 45% 29.94 in 10.0 mi South 4.6 mph - N/A   Clear
10:35 PM 72.7 °F 41.7 °F 33% 29.94 in 10.0 mi Calm Calm - N/A   Clear
10:55 PM 71.8 °F 43.2 °F 36% 29.95 in 10.0 mi Calm Calm - N/A   Clear
11:15 PM 71.6 °F 44.1 °F 37% 29.98 in 10.0 mi NW 13.8 mph 19.6 mph N/A   Clear
11:35 PM 72.7 °F 44.2 °F 36% 29.99 in 10.0 mi NW 4.6 mph - N/A   Clear
11:55 PM 70.9 °F 45.5 °F 40% 29.98 in 10.0 mi NW 4.6 mph - N/A   Clear